WAT4275 LIML-EHAM

Flight info

Callsign WAT4275
Flight time N/A
Altitude 38000
Route ARLES DCT PUNSA DCT VADEM DCT GILIR DCT PENDU DCT IXILU DCT EPL DCT ROUSY DCT KOMOB DCT BUB Y28 HELEN
Aircraft A319/M-SDE3FGHIRWY/LB1

Departure

Time 2026-04-30 21:45
Airport Milano Linate Airport (LIML)

Arrival

Time N/A
Airport Amsterdam Airport Schiphol (EHAM)
Time Latitude Longitude Altitude Speed Heading
2026-04-30 21:40 45.45578 9.27882 361 ft 0 kts 91°
2026-04-30 21:41 45.45578 9.27868 365 ft 7 kts 91°
2026-04-30 21:42 45.45604 9.27817 363 ft 7 kts 176°
2026-04-30 21:42 45.45609 9.27817 363 ft 0 kts 182°
2026-04-30 21:43 45.45560 9.27815 363 ft 16 kts 179°
2026-04-30 21:43 45.45451 9.27775 361 ft 16 kts 224°
2026-04-30 21:44 45.45344 9.27683 361 ft 20 kts 207°
2026-04-30 21:44 45.45195 9.27633 357 ft 36 kts 176°
2026-04-30 21:44 45.44709 9.27687 361 ft 104 kts 175°
2026-04-30 21:44 45.43771 9.27788 388 ft 162 kts 176°
2026-04-30 21:45 45.42688 9.27907 1297 ft 149 kts 176°
2026-04-30 21:45 45.41666 9.28009 2039 ft 152 kts 176°
2026-04-30 21:45 45.40507 9.28117 2248 ft 190 kts 177°
2026-04-30 21:45 45.39043 9.28097 2516 ft 225 kts 195°
2026-04-30 21:46 45.37663 9.26982 3222 ft 238 kts 229°
2026-04-30 21:46 45.36777 9.24963 3980 ft 252 kts 244°
2026-04-30 21:46 45.36048 9.22635 4825 ft 263 kts 248°
2026-04-30 21:46 45.35353 9.20211 5819 ft 266 kts 248°
2026-04-30 21:47 45.34642 9.17751 6780 ft 271 kts 246°
2026-04-30 21:47 45.33978 9.15227 7703 ft 275 kts 261°
2026-04-30 21:47 45.34099 9.12528 8581 ft 278 kts 289°
2026-04-30 21:47 45.35105 9.10175 9421 ft 283 kts 313°
2026-04-30 21:48 45.36532 9.08220 10260 ft 287 kts 318°
2026-04-30 21:48 45.38057 9.06362 11088 ft 291 kts 320°
2026-04-30 21:48 45.39624 9.04509 11874 ft 295 kts 320°
2026-04-30 21:48 45.41178 9.02631 12637 ft 298 kts 319°
2026-04-30 21:49 45.42755 9.00687 13381 ft 302 kts 319°
2026-04-30 21:49 45.44342 8.98705 14110 ft 305 kts 318°
2026-04-30 21:49 45.45942 8.96692 14811 ft 309 kts 318°
2026-04-30 21:49 45.47557 8.94647 15493 ft 312 kts 318°
2026-04-30 21:50 45.49185 8.92575 16153 ft 315 kts 318°
2026-04-30 21:50 45.50833 8.90476 16794 ft 319 kts 318°
2026-04-30 21:50 45.52491 8.88360 17421 ft 322 kts 318°
2026-04-30 21:50 45.53600 8.86942 17820 ft 324 kts 318°
2026-04-30 21:51 45.55289 8.84781 18415 ft 327 kts 318°
2026-04-30 21:51 45.56990 8.82602 18993 ft 330 kts 318°
2026-04-30 21:51 45.58707 8.80401 19559 ft 333 kts 317°
2026-04-30 21:51 45.60438 8.78177 20105 ft 336 kts 317°
2026-04-30 21:52 45.62192 8.75939 20642 ft 339 kts 318°
2026-04-30 21:52 45.63973 8.73694 21149 ft 342 kts 319°
2026-04-30 21:52 45.65774 8.71443 21669 ft 345 kts 319°
2026-04-30 21:52 45.67570 8.69204 22158 ft 348 kts 319°
2026-04-30 21:53 45.69406 8.66921 22634 ft 350 kts 319°
2026-04-30 21:53 45.71251 8.64626 23104 ft 353 kts 319°
2026-04-30 21:53 45.73109 8.62316 23568 ft 355 kts 319°
2026-04-30 21:53 45.74988 8.59979 24001 ft 358 kts 319°
2026-04-30 21:54 45.76875 8.57630 24447 ft 360 kts 319°
2026-04-30 21:54 45.78776 8.55261 24869 ft 363 kts 319°
2026-04-30 21:54 45.80684 8.52880 25271 ft 365 kts 319°
2026-04-30 21:54 45.82616 8.50466 25605 ft 370 kts 319°
2026-04-30 21:55 45.84539 8.48061 25981 ft 372 kts 319°
2026-04-30 21:55 45.86501 8.45606 26331 ft 376 kts 319°
2026-04-30 21:55 45.88481 8.43124 26665 ft 379 kts 319°
2026-04-30 21:55 45.90434 8.40579 27165 ft 377 kts 313°
2026-04-30 21:56 45.92151 8.37705 27424 ft 382 kts 308°
2026-04-30 21:56 45.93748 8.34631 27697 ft 386 kts 305°
2026-04-30 21:56 45.95296 8.31437 27948 ft 390 kts 304°
2026-04-30 21:56 45.96808 8.28176 28340 ft 390 kts 303°
2026-04-30 21:57 45.98264 8.24940 28713 ft 391 kts 302°
2026-04-30 21:57 45.99731 8.21612 28949 ft 395 kts 302°
2026-04-30 21:57 46.01187 8.18260 29369 ft 393 kts 302°
2026-04-30 21:57 46.02632 8.14904 29601 ft 398 kts 301°
2026-04-30 21:58 46.04091 8.11488 29806 ft 402 kts 301°
2026-04-30 21:58 46.05554 8.08047 30159 ft 402 kts 301°
2026-04-30 21:58 46.07024 8.04593 30285 ft 408 kts 301°
2026-04-30 21:58 46.08524 8.01078 30432 ft 413 kts 301°
2026-04-30 21:59 46.10029 7.97554 30739 ft 413 kts 301°
2026-04-30 21:59 46.11531 7.94038 31108 ft 411 kts 301°
2026-04-30 21:59 46.13017 7.90559 31364 ft 413 kts 301°
2026-04-30 22:00 46.16072 7.83394 31660 ft 420 kts 301°
2026-04-30 22:00 46.19110 7.76253 32310 ft 419 kts 301°
2026-04-30 22:00 46.20645 7.72637 32344 ft 425 kts 301°
2026-04-30 22:01 46.22186 7.69002 32708 ft 422 kts 301°
2026-04-30 22:01 46.23725 7.65368 32818 ft 427 kts 301°
2026-04-30 22:01 46.25277 7.61696 33011 ft 428 kts 301°
2026-04-30 22:01 46.26828 7.58023 33334 ft 427 kts 301°
2026-04-30 22:02 46.28361 7.54387 33700 ft 419 kts 301°
2026-04-30 22:02 46.29865 7.50816 33868 ft 414 kts 301°
2026-04-30 22:02 46.32874 7.43655 33975 ft 424 kts 301°
2026-04-30 22:03 46.35981 7.36244 33992 ft 437 kts 301°
2026-04-30 22:03 46.39170 7.28615 33997 ft 442 kts 301°
2026-04-30 22:04 46.42285 7.21143 33996 ft 426 kts 301°
2026-04-30 22:05 46.46904 7.10024 33997 ft 428 kts 301°
2026-04-30 22:05 46.49934 7.02704 33999 ft 425 kts 301°
2026-04-30 22:06 46.52986 6.95312 34001 ft 429 kts 301°
2026-04-30 22:06 46.57554 6.84212 33999 ft 422 kts 301°
2026-04-30 22:07 46.60563 6.76874 34001 ft 423 kts 301°
2026-04-30 22:07 46.63578 6.69501 34001 ft 426 kts 301°
2026-04-30 22:08 46.66595 6.62102 33996 ft 424 kts 300°
2026-04-30 22:08 46.69575 6.54770 33997 ft 421 kts 300°
2026-04-30 22:09 46.71230 6.51261 34012 ft 421 kts 314°
2026-04-30 22:09 46.73487 6.48550 34023 ft 423 kts 327°
2026-04-30 22:09 46.78616 6.44178 34004 ft 430 kts 332°
2026-04-30 22:10 46.83890 6.40166 33997 ft 428 kts 333°
2026-04-30 22:10 46.89195 6.36287 33998 ft 425 kts 333°
2026-04-30 22:11 46.97144 6.30556 33998 ft 425 kts 333°
2026-04-30 22:12 47.02470 6.26721 33996 ft 425 kts 333°
2026-04-30 22:12 47.07773 6.22908 33997 ft 423 kts 334°
2026-04-30 22:13 47.13059 6.19108 33998 ft 423 kts 334°
2026-04-30 22:13 47.18325 6.15313 33998 ft 427 kts 334°
2026-04-30 22:14 47.23763 6.11384 34002 ft 442 kts 333°
2026-04-30 22:14 47.29372 6.07310 33998 ft 453 kts 333°
2026-04-30 22:15 47.35236 6.04299 34014 ft 449 kts 353°
2026-04-30 22:15 47.41525 6.03759 33999 ft 456 kts 358°
2026-04-30 22:16 47.47865 6.03679 33997 ft 455 kts 360°
2026-04-30 22:17 47.60463 6.03865 33998 ft 454 kts
2026-04-30 22:17 47.69942 6.04067 33999 ft 453 kts
2026-04-30 22:18 47.79401 6.04333 33997 ft 454 kts
2026-04-30 22:19 47.88882 6.04630 33999 ft 454 kts
2026-04-30 22:20 47.98329 6.04927 34000 ft 453 kts
2026-04-30 22:20 48.07800 6.05220 34000 ft 455 kts
2026-04-30 22:21 48.14129 6.05415 33999 ft 454 kts
2026-04-30 22:21 48.20444 6.05607 34000 ft 454 kts
2026-04-30 22:22 48.26767 6.05800 33999 ft 455 kts
2026-04-30 22:22 48.33058 6.06033 34000 ft 455 kts
2026-04-30 22:23 48.39380 6.06318 33999 ft 453 kts
2026-04-30 22:23 48.45701 6.06615 34000 ft 455 kts
2026-04-30 22:24 48.52028 6.06916 33999 ft 454 kts
2026-04-30 22:24 48.58335 6.07215 34000 ft 453 kts
2026-04-30 22:25 48.64654 6.07515 34000 ft 455 kts
2026-04-30 22:25 48.70941 6.07813 34000 ft 455 kts
2026-04-30 22:26 48.80416 6.08263 34001 ft 453 kts
2026-04-30 22:27 48.86726 6.08565 33999 ft 454 kts
2026-04-30 22:27 48.96193 6.09017 34000 ft 453 kts
2026-04-30 22:28 49.05640 6.09470 33998 ft 454 kts
2026-04-30 22:29 49.18256 6.10077 33999 ft 454 kts
2026-04-30 22:31 49.40346 6.11147 34001 ft 453 kts
2026-04-30 22:32 49.49501 6.08960 34023 ft 452 kts 330°
2026-04-30 22:32 49.54820 6.03709 34000 ft 454 kts 325°
2026-04-30 22:33 49.67662 5.89625 33997 ft 453 kts 324°
2026-04-30 22:35 49.80436 5.75423 33998 ft 453 kts 324°
2026-04-30 22:36 49.93249 5.61128 33999 ft 453 kts 324°
2026-04-30 22:37 50.03504 5.49635 34000 ft 454 kts 324°
2026-04-30 22:38 50.12879 5.39099 33999 ft 454 kts 324°
2026-04-30 22:39 50.21475 5.29709 33999 ft 452 kts 325°
2026-04-30 22:39 50.29221 5.21291 33896 ft 455 kts 325°
2026-04-30 22:40 50.36189 5.13697 33334 ft 460 kts 325°
2026-04-30 22:41 50.44032 5.05117 32512 ft 457 kts 324°
2026-04-30 22:41 50.49252 4.99385 31962 ft 459 kts 324°
2026-04-30 22:42 50.59731 4.87833 30862 ft 460 kts 324°
2026-04-30 22:43 50.64988 4.82012 30314 ft 461 kts 324°
2026-04-30 22:43 50.70220 4.76202 29765 ft 463 kts 324°
2026-04-30 22:44 50.75484 4.70339 29215 ft 463 kts 324°
2026-04-30 22:45 50.86038 4.58530 28117 ft 466 kts 324°
2026-04-30 22:45 50.90618 4.51363 27572 ft 466 kts 306°
2026-04-30 22:46 50.94277 4.42930 27021 ft 467 kts 303°
2026-04-30 22:47 51.01180 4.25425 25918 ft 467 kts 301°
2026-04-30 22:47 51.04545 4.16652 25356 ft 461 kts 301°
2026-04-30 22:48 51.07860 4.08042 24814 ft 458 kts 305°
2026-04-30 22:49 51.14719 3.97608 23993 ft 453 kts 321°
2026-04-30 22:49 51.22325 3.88869 23163 ft 448 kts 336°
2026-04-30 22:50 51.34277 3.86692 21613 ft 406 kts 358°
2026-04-30 22:51 51.39725 3.86544 20700 ft 379 kts 359°
2026-04-30 22:51 51.44950 3.86448 19806 ft 373 kts 359°
2026-04-30 22:52 51.47541 3.86400 19355 ft 371 kts 359°
2026-04-30 22:52 51.52638 3.86299 18465 ft 365 kts 359°
2026-04-30 22:53 51.57697 3.86189 17555 ft 361 kts 359°
2026-04-30 22:53 51.62684 3.86070 16652 ft 356 kts 359°
2026-04-30 22:53 51.65155 3.86008 16200 ft 353 kts 359°
2026-04-30 22:54 51.70038 3.86005 15301 ft 349 kts
2026-04-30 22:55 51.76199 3.91811 13968 ft 342 kts 38°
2026-04-30 22:55 51.79744 3.96607 13058 ft 324 kts 41°
2026-04-30 22:56 51.83043 4.01315 12146 ft 308 kts 41°
2026-04-30 22:56 51.87550 4.07864 10797 ft 275 kts 41°
2026-04-30 22:57 51.90319 4.11864 9889 ft 259 kts 41°
2026-04-30 22:57 51.92968 4.15591 9026 ft 245 kts 40°
2026-04-30 22:58 51.95432 4.19014 8348 ft 223 kts 40°
2026-04-30 22:59 51.98894 4.23799 6994 ft 213 kts 40°
2026-04-30 22:59 52.02220 4.28395 5661 ft 208 kts 40°